Meteo Giornale » Osservazioni meteo Slovenia » Portoroz

ore: 21:00 - Osservazioni Meteo Portoroz
Lat. 45° 31' N Lon. 13° 34' E Alt. 95 metri s.l.m.

molto_nuvoloso Europe/Ljubljana

19 °C

Molto Nuvoloso

Temp. 24 Ore

16 °C

23 °C

Est/Sud-Est

11.1 Km/h

Dew point 18 °C

Umidità 93 %

Visibilità  10 Km

Il sole sorge alle ore 06:53

Il sole tramonta alle ore 19:02

Data e Ora Cielo e Fenomeni T °C DP °C Um. % Pres. hPa Vis. km Vento km/h
Oggi h: 21:00 molto_nuvoloso Molto Nuvoloso 19 18 93 1009 10 E/SE 11.1
Oggi h: 20:30 nuvoloso_piovaschi Debole Rovescio di Pioggia 20 18 88 1010 10 E/SE 9.3
Oggi h: 20:00 nuvoloso_piovaschi Debole Rovescio di Pioggia 20 18 88 1009 10 SE 7.4
Oggi h: 19:30 molto_nuvoloso Molto Nuvoloso 20 17 82 1009 10 E/SE 7.4
Oggi h: 19:00 molto_nuvoloso Molto Nuvoloso 21 17 77 1009 10 N 3.7
Oggi h: 18:30 molto_nuvoloso Molto Nuvoloso 21 17 77 1009 10 N 5.5
Oggi h: 18:00 molto_nuvoloso Molto Nuvoloso 22 17 73 1009 10 S 7.4
Oggi h: 17:00 molto_nuvoloso Molto Nuvoloso 23 16 64 1009 10 S/SO 11.1
Oggi h: 16:30 molto_nuvoloso Molto Nuvoloso 23 16 64 1009 10 S/SO 11.1
Oggi h: 16:00 molto_nuvoloso Molto Nuvoloso 23 16 64 1010 10 S/SO 16.7
Oggi h: 15:30 molto_nuvoloso Molto Nuvoloso 23 17 68 1009 10 SO 14.8
Oggi h: 15:00 molto_nuvoloso Molto Nuvoloso 22 17 73 1010 10 SO 7.4
Oggi h: 14:30 molto_nuvoloso Molto Nuvoloso 21 17 77 1010 10 S/SO 11.1
Oggi h: 14:00 molto_nuvoloso Molto Nuvoloso 22 16 68 1010 10 SO 20.3
Oggi h: 13:30 molto_nuvoloso Molto Nuvoloso 22 17 73 1010 10 O/SO 18.5
Oggi h: 13:00 molto_nuvoloso Molto Nuvoloso 22 18 78 1010 10 SO 16.7
Oggi h: 12:30 molto_nuvoloso Molto Nuvoloso 22 18 78 1010 10 SO 16.7
Oggi h: 12:00 molto_nuvoloso Molto Nuvoloso 22 17 73 1010 10 O/SO 14.8
Oggi h: 11:30 molto_nuvoloso Molto Nuvoloso 22 17 73 1010 10 S/SO 13
Oggi h: 10:30 nuvoloso_piovaschi Debole Rovescio di Pioggia 19 16 82 1010 10 S 16.7
Oggi h: 10:00 nuvoloso_piovaschi Debole Rovescio di Pioggia 21 18 82 1010 10 SE 9.3
Oggi h: 09:30 molto_nuvoloso Molto Nuvoloso 20 17 82 1010 10 E/SE 11.1
Oggi h: 08:30 molto_nuvoloso Molto Nuvoloso 18 17 93 1010 10 SE 7.4
Oggi h: 07:30 nuvoloso_piovaschi Debole Rovescio di Pioggia 17 16 93 1010 10 E 11.1
Oggi h: 07:00 nuvoloso_piovaschi Rovescio di Pioggia Foschia 17 16 93 1010 5 SE 7.4
Oggi h: 06:00 nuvoloso_piovaschi Debole Rovescio di Pioggia 17 16 93 1010 10 E/SE 9.3
Oggi h: 05:30 molto_nuvoloso Molto Nuvoloso 16 15 93 1010 10 E/SE 13
Oggi h: 05:00 molto_nuvoloso Molto Nuvoloso 16 16 100 1010 10 E/SE 9.3
Oggi h: 04:30 molto_nuvoloso Molto Nuvoloso 16 15 93 1010 10 E/SE 9.3
Oggi h: 04:00 nuvoloso Nuvoloso 16 15 93 1010 10 E/SE 7.4
Oggi h: 03:30 sereno Sereno 16 16 100 1010 10 N 5.5
Oggi h: 03:00 sereno Sereno 16 16 100 1011 10 E/SE 7.4
Oggi h: 02:30 nuvoloso Nuvoloso 17 16 93 1011 10 E/SE 7.4
Oggi h: 02:00 sereno Sereno 17 17 100 1011 10 N 5.5
Oggi h: 01:30 coperto_pioggia Pioggia Debole 17 17 100 1011 10 E/SE 7.4
Oggi h: 01:00 coperto_pioggia Pioggia 18 17 93 1011 10 N 0
Oggi h: 00:30 coperto_pioggia Pioggia 18 17 93 1011 8 E/SE 7.4
Oggi h: 00:00 coperto_pioggia Pioggia 18 17 93 1012 10 E/SE 9.3
Ieri h: 23:30 coperto_pioggia Pioggia 18 17 93 1012 10 N 3.7
Ieri h: 23:00 coperto_pioggia Pioggia 18 17 93 1012 10 N 3.7
Ieri h: 22:30 coperto_pioggia Pioggia 18 17 93 1012 4 N 3.7
Ieri h: 22:00 nuvoloso_temporali Temporale con Pioggia 18 16 88 1013 10 S/SO 16.7